CZ-6A DEB

Satellite information

Favourite Embed

Satellite Type and Status

DEBRISIN ORBIT

Key statistics

Satellite CZ-6A DEB at a glance.

Uptime

909

Days in orbit

Revolutions

≈ 14.0

Per day

Orbit

SSO

Sun Synchronous Orbit

Inclination

98.8

Latest

Satellite identification and parameters

Extended collection of information and parameters for CZ-6A DEB.

Object identification

Identified? True

Debris? True

Object name: CZ-6A DEB

International designator: 2022-151KA

Object number (NORAD): 54522

Object ID (CCSDS): 54522

Country: PEOPLES REPUBLIC OF CHINA (PRC)

Current information (Y/N): Y

RCS size: SMALL

Orbital parameters

Period: 102.755 minutes

Inclination: 98.849 deg

SMA: 7267.094 km

Apoapsis: 972.532 km

Periapsis: 805.386 km

RAAN: 115.2672 deg

Eccentricy: 0.0115002

Argument of periapsis: 115.3438 deg

Mean anomaly: 245.969 deg

Mean motion: 14.01398277 rev/day

Mean motion (dot): 0.0000042 rev/day2

B* drag term: 0.00028885 1/REarth

Two-line elements (TLE)

Creation date: May 8, 2025, 3:01 a.m.

Reference frame: TEME

Reference center: EARTH

Epoch: May 7, 2025, 8:16 p.m. UTC

TLE line 0: 0 CZ-6A DEB

TLE line 1: 1 54522U 22151KA 25127.84507026 .00000420 00000-0 28885-3 0 9998

TLE line 2: 2 54522 98.8490 115.2672 0115002 115.3438 245.9690 14.01398277126855

Live tracking on map

Real-time ground track for satellite CZ-6A DEB.

In-orbit conjunctions

A list of the most updated potential collisions computed for object CZ-6A DEB.

Target Orbit TCA Probability of collision Miss distance Type
DIAMANT B-P4 R/B LEO 2024-08-10 09:44:22 0.0001499114 244.0 (m) ROCKET BODY
FENGYUN 1C DEB SSO 2024-06-04 22:21:39 0.0001352708 331.0 (m) DEBRIS

Associated space launch

Chinese satellite reported for atmospheric/ocean/environmental/spatial parameter research purposes, details TBD.

CZ-6A DEB was lifted into orbit during the mission ‘Long March 6A | Yunhai 3’, on board a Long March 6A space rocket.

The launch took place on Nov. 11, 2022, 10:52 p.m. from Launch Complex 9A.

For more information about the launch, click the button.

Launch to space Long March 6A | Yunhai 3
Long March 6A | Yunhai 3

Agency: N/A

Status: Launch Successful

Launch date: Nov. 11, 2022, 10:52 p.m. UTC

Rocket: Long March 6A

Launch pad: Launch Complex 9A

Location: Taiyuan Satellite Launch Center, People's Republic of China

...

Latest news about this satellite

There are no fresh news available about this satellite. Check back as we update our databases every day.


Newsletter sign-up

Weekly statistics, charts and insights to help you stay on top of the space industry.